QTR88Y OTHH-EGPH

Flight info

Callsign QTR88Y
Flight time N/A
Altitude 38000
Route OTHH/34R N0494F380 DEMBO4 ULIKA M430 KSA T503 OVANO L768 FIRAS R655 KTN R785 NIKAS L619 VESAR UN135 TUKTU/N0488F400 UN135 IMR UN127 RIKSO DCT DISOR DCT LONTA UL608 DOLEV DCT IRDIV DCT PODET DCT SIMBA DCT GASKA DCT MAPOX DCT GODOS DCT AGPED AGPE1E EGPH/06
Aircraft A359/H-SDE2E3GHIJ3J4J5LM1ORWXY/LB1D1

Departure

Time 2026-05-06 06:25
Airport Hamad International Airport (OTHH)

Arrival

Time N/A
Airport Edinburgh Airport (EGPH)
Time Latitude Longitude Altitude Speed Heading
2026-05-06 05:45 25.26670 51.61235 28 ft 0 kts 249°
2026-05-06 06:08 25.26679 51.61259 28 ft 4 kts 247°
2026-05-06 06:09 25.26691 51.61286 27 ft 4 kts 243°
2026-05-06 06:09 25.26699 51.61306 26 ft 4 kts 279°
2026-05-06 06:09 25.26693 51.61326 24 ft 4 kts 311°
2026-05-06 06:09 25.26683 51.61337 26 ft 4 kts
2026-05-06 06:10 25.26657 51.61335 26 ft 3 kts 359°
2026-05-06 06:10 25.26654 51.61335 26 ft 0 kts 358°
2026-05-06 06:15 25.26656 51.61334 26 ft 1 kts 358°
2026-05-06 06:16 25.26703 51.61335 26 ft 12 kts
2026-05-06 06:16 25.26801 51.61372 28 ft 17 kts 24°
2026-05-06 06:16 25.26915 51.61426 28 ft 19 kts 23°
2026-05-06 06:16 25.26991 51.61468 28 ft 8 kts 43°
2026-05-06 06:17 25.27016 51.61525 28 ft 9 kts 67°
2026-05-06 06:17 25.27045 51.61602 28 ft 12 kts 67°
2026-05-06 06:17 25.27079 51.61696 28 ft 14 kts 68°
2026-05-06 06:17 25.27099 51.61750 28 ft 0 kts 69°
2026-05-06 06:18 25.27107 51.61770 28 ft 6 kts 64°
2026-05-06 06:18 25.27130 51.61786 28 ft 6 kts 11°
2026-05-06 06:18 25.27204 51.61759 28 ft 17 kts 339°
2026-05-06 06:18 25.27334 51.61702 28 ft 21 kts 338°
2026-05-06 06:19 25.27476 51.61638 28 ft 23 kts 338°
2026-05-06 06:19 25.27629 51.61572 28 ft 25 kts 339°
2026-05-06 06:19 25.27794 51.61501 28 ft 26 kts 336°
2026-05-06 06:19 25.27962 51.61424 28 ft 27 kts 338°
2026-05-06 06:20 25.28141 51.61344 28 ft 28 kts 338°
2026-05-06 06:20 25.28327 51.61264 29 ft 29 kts 338°
2026-05-06 06:20 25.28513 51.61182 29 ft 30 kts 338°
2026-05-06 06:20 25.28707 51.61096 29 ft 29 kts 338°
2026-05-06 06:21 25.28887 51.61016 28 ft 29 kts 338°
2026-05-06 06:21 25.29069 51.60937 28 ft 30 kts 338°
2026-05-06 06:21 25.29239 51.60861 28 ft 26 kts 338°
2026-05-06 06:21 25.29384 51.60798 28 ft 12 kts 340°
2026-05-06 06:22 25.29436 51.60776 28 ft 10 kts 338°
2026-05-06 06:22 25.29511 51.60746 28 ft 10 kts 355°
2026-05-06 06:22 25.29555 51.60794 28 ft 10 kts 68°
2026-05-06 06:22 25.29567 51.60872 27 ft 11 kts 91°
2026-05-06 06:23 25.29545 51.60927 27 ft 6 kts 150°
2026-05-06 06:23 25.29538 51.60930 27 ft 0 kts 155°
2026-05-06 06:24 25.29265 51.61054 31 ft 83 kts 158°
2026-05-06 06:24 25.28517 51.61384 31 ft 150 kts 158°
2026-05-06 06:24 25.27395 51.61885 253 ft 186 kts 156°
2026-05-06 06:25 25.26229 51.62449 1164 ft 177 kts 154°
2026-05-06 06:25 25.25066 51.62965 1860 ft 191 kts 155°
2026-05-06 06:25 25.22845 51.64900 2388 ft 230 kts 114°
2026-05-06 06:26 25.22684 51.66735 2558 ft 258 kts 78°
2026-05-06 06:26 25.23506 51.68580 2926 ft 276 kts 57°
2026-05-06 06:26 25.24663 51.70253 3768 ft 272 kts 48°
2026-05-06 06:26 25.26201 51.71430 4592 ft 271 kts 23°
2026-05-06 06:27 25.28041 51.71672 5394 ft 275 kts 354°
2026-05-06 06:27 25.29805 51.70872 6145 ft 280 kts 325°
2026-05-06 06:27 25.30260 51.70426 6378 ft 282 kts 316°
2026-05-06 06:27 25.31216 51.68542 7131 ft 286 kts 288°
2026-05-06 06:28 25.31502 51.66368 7987 ft 287 kts 276°
2026-05-06 06:28 25.31473 51.64155 8817 ft 289 kts 268°
2026-05-06 06:28 25.31360 51.62687 9396 ft 290 kts 266°
2026-05-06 06:28 25.31062 51.59698 10425 ft 298 kts 265°
2026-05-06 06:29 25.30894 51.58159 10683 ft 312 kts 264°
2026-05-06 06:29 25.30519 51.54877 11102 ft 338 kts 264°
2026-05-06 06:29 25.30209 51.52226 11443 ft 356 kts 263°
2026-05-06 06:29 25.29886 51.49475 11964 ft 365 kts 263°
2026-05-06 06:30 25.29588 51.46677 12599 ft 371 kts 265°
2026-05-06 06:30 25.29463 51.44781 13040 ft 374 kts 266°
2026-05-06 06:30 25.29310 51.41903 13726 ft 378 kts 267°
2026-05-06 06:30 25.29184 51.38984 14375 ft 381 kts 268°
2026-05-06 06:31 25.29040 51.35103 15302 ft 383 kts 268°
2026-05-06 06:31 25.28937 51.32160 15990 ft 385 kts 268°
2026-05-06 06:31 25.28868 51.30162 16456 ft 386 kts 268°
2026-05-06 06:31 25.28729 51.26210 17331 ft 390 kts 268°
2026-05-06 06:32 25.28663 51.24182 17745 ft 393 kts 268°
2026-05-06 06:32 25.29033 51.21224 18264 ft 398 kts 287°
2026-05-06 06:32 25.29958 51.18365 18961 ft 395 kts 287°
2026-05-06 06:32 25.30700 51.15422 19509 ft 399 kts 282°
2026-05-06 06:33 25.30910 51.12355 20067 ft 403 kts 269°
2026-05-06 06:33 25.30719 51.09263 20694 ft 405 kts 265°
2026-05-06 06:33 25.30429 51.06150 21302 ft 408 kts 264°
2026-05-06 06:33 25.30120 51.03024 21887 ft 411 kts 264°
2026-05-06 06:34 25.29805 50.99871 22493 ft 414 kts 264°
2026-05-06 06:34 25.29490 50.96714 23086 ft 417 kts 264°
2026-05-06 06:34 25.29170 50.93517 23633 ft 419 kts 264°
2026-05-06 06:34 25.28853 50.90353 24156 ft 421 kts 264°
2026-05-06 06:35 25.28530 50.87132 24718 ft 422 kts 263°
2026-05-06 06:35 25.28206 50.83898 25294 ft 423 kts 263°
2026-05-06 06:35 25.27880 50.80663 25872 ft 425 kts 263°
2026-05-06 06:35 25.27552 50.77415 26445 ft 426 kts 263°
2026-05-06 06:36 25.27222 50.74156 27014 ft 428 kts 263°
2026-05-06 06:36 25.26890 50.70885 27572 ft 430 kts 263°
2026-05-06 06:36 25.26555 50.67594 28127 ft 432 kts 263°
2026-05-06 06:36 25.26275 50.64332 28658 ft 434 kts 265°
2026-05-06 06:37 25.26124 50.60993 29192 ft 436 kts 266°
2026-05-06 06:37 25.26053 50.57631 29706 ft 439 kts 267°
2026-05-06 06:37 25.26019 50.54255 30165 ft 441 kts 268°
2026-05-06 06:37 25.25997 50.50860 30545 ft 444 kts 268°
2026-05-06 06:38 25.26011 50.47436 30914 ft 447 kts 269°
2026-05-06 06:38 25.26092 50.44006 31283 ft 449 kts 269°
2026-05-06 06:38 25.26200 50.40535 31636 ft 452 kts 270°
2026-05-06 06:38 25.26310 50.37061 31976 ft 454 kts 270°
2026-05-06 06:39 25.26409 50.33617 32306 ft 456 kts 269°
2026-05-06 06:39 25.26497 50.30111 32626 ft 458 kts 269°
2026-05-06 06:39 25.26575 50.26580 32963 ft 460 kts 269°
2026-05-06 06:39 25.26647 50.23060 33448 ft 458 kts 269°
2026-05-06 06:40 25.26715 50.19553 33938 ft 455 kts 269°
2026-05-06 06:40 25.26781 50.16064 34318 ft 454 kts 269°
2026-05-06 06:40 25.26846 50.12578 34697 ft 453 kts 269°
2026-05-06 06:40 25.26910 50.09098 35074 ft 452 kts 268°
2026-05-06 06:41 25.26973 50.05681 35449 ft 451 kts 268°
2026-05-06 06:41 25.27036 50.02225 35789 ft 448 kts 268°
2026-05-06 06:41 25.27098 49.98799 36102 ft 445 kts 268°
2026-05-06 06:41 25.27159 49.95389 36348 ft 444 kts 268°
2026-05-06 06:42 25.27218 49.91981 36572 ft 443 kts 268°
2026-05-06 06:42 25.27277 49.88581 36798 ft 442 kts 268°
2026-05-06 06:42 25.27335 49.85190 37028 ft 441 kts 268°
2026-05-06 06:42 25.27392 49.81810 37250 ft 440 kts 268°
2026-05-06 06:43 25.27449 49.78426 37453 ft 440 kts 268°
2026-05-06 06:43 25.27504 49.75102 37653 ft 439 kts 268°
2026-05-06 06:43 25.27558 49.71737 37829 ft 439 kts 268°
2026-05-06 06:44 25.27664 49.64950 37881 ft 444 kts 268°
2026-05-06 06:44 25.27769 49.58146 37887 ft 443 kts 268°
2026-05-06 06:45 25.27872 49.51389 37886 ft 442 kts 268°
2026-05-06 06:45 25.27582 49.44639 37886 ft 439 kts 263°
2026-05-06 06:46 25.27001 49.37925 37886 ft 438 kts 262°
2026-05-06 06:46 25.26375 49.31228 37885 ft 438 kts 262°
2026-05-06 06:47 25.25756 49.24587 37877 ft 437 kts 262°
2026-05-06 06:47 25.25142 49.17912 37876 ft 437 kts 262°
2026-05-06 06:48 25.24528 49.11243 37877 ft 436 kts 262°
2026-05-06 06:48 25.23917 49.04590 37880 ft 435 kts 262°
2026-05-06 06:49 25.23301 48.97990 37886 ft 435 kts 262°